Location: *
(55.6049°S, 142.1985°W)
Time: 01:19:57
(UTC+00:00)

USA 32 - Pass Details

Date: 12 May 2021
Orbit: 779 x 781 km, 85.0° (Epoch: 17 June)

Event Time Altitude Azimuth Distance (km) Brightness Sun altitude
Exits shadow 14:26:50 22° 341° (NNW) 1,693 5.6 -23.2°
Maximum altitude 14:30:21 70° 260° (W) 845 3.9 -22.7°
Drops below altitude 10° 14:35:42 10° 175° (S) 2,378 6.6 -22.0°
Sets 14:38:06 0° 173° (S) 3,313 7.4 -21.6°
